Location: Edisto_Beach
(32.4790°N, 80.3350°W)
Time: 11:58:19
(UTC-05:00)

Amateur Radio Satellites - All Passes

Search period start: 19 January 2017 11:28
Search period end: 20 January 2017 11:28
Location: Edisto_Beach, 32.4790°N, 80.3350°W

Satellite Date Start Highest point End Downlink Frequencies (MHz)
Time Altitude Azimuth
BUGSAT 1 19 Jan 11:40:02 11:43:46 35° 74° (ENE) 11:47:29 437.445
VELOX 1 19 Jan 11:40:32 11:43:50 21° 96° (E) 11:47:08 145.980
PCSat 19 Jan 11:41:45 11:46:31 32° 252° (WSW) 11:51:16 145.827
QB50P1 19 Jan 11:56:16 12:00:05 34° 262° (W) 12:03:55 145.935-145.965
POLYITAN 1 19 Jan 12:00:09 12:03:50 30° 262° (W) 12:07:33 437.675
QB50P2 19 Jan 12:01:28 12:05:03 27° 263° (W) 12:08:40 145.880/145.840
Cosmos 2491 19 Jan 12:03:26 12:08:02 15° 67° (ENE) 12:12:35 435.465 / 435.565
50 SAT 19 Jan 12:11:50 12:15:07 35° 99° (E) 12:18:21 437.505
BY70-1 19 Jan 12:15:54 12:17:05 12° 292° (WNW) 12:18:15 436.1900
DX 1 19 Jan 12:16:45 12:20:18 25° 97° (E) 12:23:51 434.975-435.025
SPROUT 19 Jan 12:18:17 12:22:21 43° 99° (E) 12:26:24 437.525
UKube-1 19 Jan 12:18:55 12:21:55 18° 96° (E) 12:24:54 .
POPSAT HIP 1 19 Jan 12:24:20 12:27:02 17° 265° (W) 12:29:44 437.405
CUBEBUG 1 19 Jan 12:29:35 12:33:48 53° 285° (WNW) 12:37:59 437.445
DUCHIFAT 1 19 Jan 12:37:24 12:39:31 14° 266° (W) 12:41:37 145.980
AISAT 19 Jan 12:42:32 12:46:51 62° 285° (WNW) 12:51:09 437.250
NANOSAT C BR1 19 Jan 12:43:36 12:44:28 11° 267° (W) 12:45:19 145.865
ESTCUBE 1 19 Jan 13:00:54 13:03:26 15° 293° (WNW) 13:05:59 437.505/2401.250
Oscar 19 19 Jan 13:09:16 13:14:29 88° 266° (W) 13:19:42 437.125/150
Gurwin Techsat 1B 19 Jan 13:13:36 13:18:43 51° 73° (ENE) 13:23:50 435.225
VELOX 1 19 Jan 13:16:33 13:20:13 26° 289° (WNW) 13:23:51 145.980
BUGSAT 1 19 Jan 13:17:18 13:19:13 13° 266° (W) 13:21:06 437.445
50 SAT 19 Jan 13:47:54 13:47:56 10° 292° (WNW) 13:47:57 437.505
TISAT 1 19 Jan 13:50:30 13:54:41 70° 102° (ESE) 13:58:49 437.305
ITAMSAT 1 19 Jan 13:51:03 13:54:54 21° 67° (ENE) 13:58:44 435.822/435.867
DX 1 19 Jan 13:53:00 13:56:19 22° 290° (WNW) 13:59:38 434.975-435.025
UKube-1 19 Jan 13:54:13 13:57:55 29° 289° (WNW) 14:01:36 .
SPROUT 19 Jan 13:56:03 13:57:50 12° 293° (WNW) 13:59:37 437.525
Cosmos 2491 19 Jan 13:57:05 14:05:55 89° 267° (W) 14:14:45 435.465 / 435.565
BEESAT 19 Jan 13:57:25 13:59:44 13° 94° (E) 14:02:02 436.000
YUBILEINY 19 Jan 13:57:52 14:06:08 47° 89° (E) 14:14:27 435.215
SWISSCUBE 19 Jan 13:58:23 14:01:18 16° 94° (E) 14:04:12 437.505
AO-85 19 Jan 14:02:10 14:07:03 86° 120° (ESE) 14:11:35 145.980
AO-7 19 Jan 14:02:57 14:10:06 33° 63° (ENE) 14:17:15 29.400- 29.500
Cosmos 2504 19 Jan 14:03:39 14:10:29 26° 85° (E) 14:17:04 435.465 / 435.565
CUSAT 1 19 Jan 14:06:27 14:14:06 47° 76° (ENE) 14:21:03 437.405
JUGNU 19 Jan 14:09:18 14:13:04 18° 168° (SSE) 14:16:52 437.505
AIST 1 19 Jan 14:15:29 14:19:51 90° 146° (SE) 14:24:15
DANDE 19 Jan 14:43:51 14:51:00 35° 76° (ENE) 14:58:25 436.750
Gurwin Techsat 1B 19 Jan 14:55:48 14:58:51 15° 266° (W) 15:01:56 435.225
ITUPSAT 1 19 Jan 14:57:30 15:02:17 65° 101° (ESE) 15:07:03 437.325
BRITE-PL 19 Jan 15:21:54 15:25:01 15° 66° (ENE) 15:28:08 437.365/2234.400
ITAMSAT 1 19 Jan 15:29:20 15:34:04 36° 261° (W) 15:38:49 435.822/435.867
BEESAT 19 Jan 15:33:05 15:37:41 48° 287° (WNW) 15:42:17 436.000
SWISSCUBE 19 Jan 15:34:42 15:39:12 41° 287° (WNW) 15:43:41 437.505
SRMSAT 19 Jan 15:37:52 15:40:10 12° 163° (SSE) 15:42:28 437.500
MOZHAYETS 4 19 Jan 15:38:30 15:43:04 54° 100° (E) 15:47:35
CUSAT 1 19 Jan 15:48:56 15:55:37 31° 273° (W) 16:01:47 437.405
AO-7 19 Jan 15:54:31 16:02:29 49° 258° (WSW) 16:10:32 29.400- 29.500
Cosmos 2504 19 Jan 15:54:46 16:03:20 56° 279° (W) 16:11:30 435.465 / 435.565
YUBILEINY 19 Jan 15:55:29 16:03:02 31° 285° (WNW) 16:10:39 435.215
JUGNU 19 Jan 15:56:52 16:01:28 24° 178° (S) 16:06:06 437.505
Cosmos 2491 19 Jan 15:57:39 16:01:25 13° 281° (W) 16:05:11 435.465 / 435.565
BEESAT 3 19 Jan 15:58:13 16:01:45 35° 113° (ESE) 16:05:20 437.485
M-CUBED/EXP-1 PRIME 19 Jan 16:04:17 16:07:12 28° 103° (ESE) 16:10:03 437.505
O/OREOS (USA 219) 19 Jan 16:08:46 16:12:23 23° 64° (ENE) 16:16:01 437.305
CUBESAT XI-V 19 Jan 16:22:03 16:25:36 21° 95° (E) 16:29:08 437.345
DANDE 19 Jan 16:26:12 16:33:42 46° 269° (W) 16:41:30 436.750
KKS-1 19 Jan 16:26:21 16:30:40 53° 100° (E) 16:34:59 437.445
HORYU 2 19 Jan 16:30:07 16:33:50 27° 71° (ENE) 16:37:33 437.375
CUTE-I 19 Jan 16:34:55 16:36:49 12° 64° (ENE) 16:38:44 437.470
ITUPSAT 1 19 Jan 16:38:17 16:39:30 11° 296° (WNW) 16:40:43 437.325
BEESAT 2 19 Jan 16:40:21 16:44:05 45° 114° (ESE) 16:47:54 435.950
AUBIESAT-1 19 Jan 16:41:33 16:44:52 87° 98° (E) 16:48:09 437.475
SO-50 19 Jan 16:55:21 16:59:13 28° 55° (NE) 17:03:03 436.795
BRITE-PL 19 Jan 16:57:14 17:02:50 65° 259° (W) 17:08:30 437.365/2234.400
GOMX 1 19 Jan 17:06:58 17:12:23 66° 76° (ENE) 17:17:36 467.674
NOAA 18 19 Jan 17:12:00 17:15:19 16° 65° (ENE) 17:18:36 137.9125
Cubesat XI-IV 19 Jan 17:14:40 17:19:16 31° 70° (ENE) 17:23:52 437.490
MOZHAYETS 4 19 Jan 17:17:51 17:19:42 12° 294° (WNW) 17:21:33
STARS 19 Jan 17:22:29 17:26:51 76° 283° (WNW) 17:31:12 437.465
SRMSAT 19 Jan 17:24:17 17:28:42 21° 172° (S) 17:33:06 437.500
NOAA 15 19 Jan 17:26:56 17:31:55 44° 72° (ENE) 17:36:55 137.62
BEESAT 3 19 Jan 17:37:12 17:39:28 15° 308° (NW) 17:41:47 437.485
M-CUBED/EXP-1 PRIME 19 Jan 17:40:49 17:41:22 10° 297° (WNW) 17:41:55 437.505
JUGNU 19 Jan 17:45:34 17:49:53 21° 188° (S) 17:54:14 437.505
O/OREOS (USA 219) 19 Jan 17:48:00 17:51:39 25° 258° (WSW) 17:55:20 437.305
LilacSat-2 19 Jan 17:48:01 17:51:45 76° 77° (ENE) 17:55:32 437.200
DOVE 4 19 Jan 17:51:44 17:56:50 74° 76° (ENE) 18:01:40 437.250
CINEMA 3 19 Jan 17:53:33 17:55:53 14° 69° (ENE) 17:58:11 145.822/145.860
CUBESAT XI-V 19 Jan 17:58:53 18:02:55 29° 289° (WNW) 18:06:55 437.345
KKS-1 19 Jan 18:05:24 18:06:43 11° 294° (WNW) 18:08:01 437.445
HORYU 2 19 Jan 18:07:03 18:10:18 20° 264° (W) 18:13:35 437.375
CUTE-I 19 Jan 18:10:55 18:16:12 71° 258° (WSW) 18:21:30 437.470
BEESAT 2 19 Jan 18:20:20 18:22:06 13° 309° (NW) 18:23:53 435.950
Cosmos 2499 19 Jan 18:22:02 18:26:37 16° 82° (E) 18:31:03 435.465 / 435.565
CANX-2 19 Jan 18:22:43 18:25:40 19° 70° (ENE) 18:28:39 2200.000
AIST 2 19 Jan 18:31:51 18:33:11 11° 107° (ESE) 18:34:30 435.215
HO-68 19 Jan 18:32:28 18:39:02 40° 67° (ENE) 18:45:35 435.675
SO-50 19 Jan 18:35:58 18:39:30 23° 249° (WSW) 18:43:01 436.795
SEEDS 19 Jan 18:36:32 18:38:53 15° 69° (ENE) 18:41:16 437.485
COMPASS 1 19 Jan 18:44:52 18:46:15 11° 67° (ENE) 18:47:39 437.405
GONETS M04 19 Jan 18:47:40 18:53:33 21° 82° (E) 18:59:27
GOMX 1 19 Jan 18:48:28 18:50:41 12° 268° (W) 18:52:53 467.674
NOAA 18 19 Jan 18:50:04 18:55:27 55° 259° (WSW) 19:00:51 137.9125
Cubesat XI-IV 19 Jan 18:54:52 18:59:15 26° 263° (W) 19:03:40 437.490
CUBEBUG 2 19 Jan 18:54:55 18:57:09 14° 69° (ENE) 18:59:22 437.445
AAUSAT CUBESAT 2 19 Jan 18:56:55 18:58:32 12° 68° (ENE) 19:00:09 437.432
NOAA 15 19 Jan 19:08:17 19:11:49 18° 265° (W) 19:15:23 137.62
SRMSAT 19 Jan 19:12:36 19:17:17 24° 182° (S) 19:22:00 437.500
STRAND 1 19 Jan 19:19:42 19:24:39 47° 100° (E) 19:29:35 437.568
UWE-3 19 Jan 19:24:30 19:27:29 19° 70° (ENE) 19:30:28 435.000/436.395/437.385
CUTE 1.7 + AOD 2 19 Jan 19:27:54 19:32:08 79° 258° (WSW) 19:36:25 437.475
CINEMA 3 19 Jan 19:28:26 19:32:41 40° 261° (W) 19:36:48 145.822/145.860
JUGNU 19 Jan 19:36:08 19:38:16 12° 197° (SSW) 19:40:24 437.505
ZACube-1 19 Jan 19:45:19 19:48:19 20° 70° (ENE) 19:51:19 437.345
CANX-2 19 Jan 19:57:38 20:01:17 28° 263° (W) 20:04:57 2200.000
AIST 2 19 Jan 20:07:14 20:11:09 45° 301° (WNW) 20:15:10 435.215
Cosmos 2499 19 Jan 20:10:14 20:18:52 81° 275° (W) 20:26:55 435.465 / 435.565
SEEDS 19 Jan 20:10:23 20:14:14 35° 262° (W) 20:18:07 437.485
COMPASS 1 19 Jan 20:17:19 20:21:20 46° 261° (W) 20:25:23 437.405
HO-68 19 Jan 20:20:22 20:26:40 33° 262° (W) 20:33:02 435.675
DELFI C3 19 Jan 20:21:37 20:23:32 13° 69° (ENE) 20:25:28 145.870
Oscar 11 19 Jan 20:22:04 20:26:12 48° 74° (ENE) 20:30:22 145.826/435.025
AAUSAT CUBESAT 2 19 Jan 20:29:36 20:33:33 43° 261° (W) 20:37:33 437.432
CUBEBUG 2 19 Jan 20:29:36 20:33:26 35° 261° (W) 20:37:16 437.445
GONETS M04 19 Jan 20:40:50 20:49:27 67° 278° (W) 20:58:10
FUNcube-1 19 Jan 20:57:42 21:01:42 52° 260° (W) 21:05:45 145.935
ISS 19 Jan 20:58:58 21:00:32 13° 126° (SE) 21:02:06 145.825
STRAND 1 19 Jan 21:00:10 21:03:24 17° 293° (WNW) 21:06:38 437.568
UWE-3 19 Jan 21:00:20 21:03:45 25° 263° (W) 21:07:10 435.000/436.395/437.385
SRMSAT 19 Jan 21:02:00 21:05:52 18° 192° (SSW) 21:09:44 437.500
ZACube-1 19 Jan 21:21:03 21:24:25 24° 264° (W) 21:27:49 437.345
HUMSAT D 19 Jan 21:38:26 21:42:28 65° 76° (ENE) 21:46:33 437.325/437.525
DELFI C3 19 Jan 21:54:17 21:57:58 35° 262° (W) 22:01:41 145.870
PRISM 19 Jan 21:59:20 22:03:22 56° 285° (WNW) 22:07:21 437.425
Oscar 11 19 Jan 22:01:37 22:02:32 11° 268° (W) 22:03:28 145.826/435.025
UNISAT 6 19 Jan 22:07:41 22:11:59 46° 100° (E) 22:16:21 437.425
Cosmos 2499 19 Jan 22:10:06 22:12:55 12° 292° (WNW) 22:15:42 435.465 / 435.565
ESTCUBE 1 19 Jan 22:18:14 22:21:43 22° 70° (ENE) 22:25:13 437.505/2401.250
TIGRISAT 19 Jan 22:21:11 22:25:36 62° 101° (E) 22:30:06 435.000
BY70-1 19 Jan 22:24:14 22:26:59 46° 75° (ENE) 22:30:00 436.1900
ISS 19 Jan 22:33:38 22:36:43 40° 319° (NW) 22:39:48 145.825
RS-15 19 Jan 22:35:03 22:45:21 38° 105° (ESE) 22:56:04 29.354- 29.394
VELOX 1 19 Jan 22:35:17 22:36:40 11° 66° (ENE) 22:38:02 145.980
ANTELSAT 19 Jan 22:36:11 22:40:39 81° 284° (WNW) 22:45:13 437.575/2403.000
JAS-2 19 Jan 22:38:20 22:45:09 39° 98° (E) 22:52:18 435.910
AO-85 19 Jan 22:39:09 22:41:46 17° 53° (NE) 22:44:23 145.980
NANOSAT C BR1 19 Jan 22:56:13 22:56:53 10° 93° (E) 22:57:33 145.865
SPROUT 19 Jan 23:08:00 23:10:59 19° 70° (ENE) 23:13:58 437.525
DX 1 19 Jan 23:09:18 23:11:18 13° 67° (ENE) 23:13:17 434.975-435.025
CUBEBUG 1 19 Jan 23:20:21 23:24:43 68° 76° (ENE) 23:29:06 437.445
AISAT 19 Jan 23:34:45 23:39:09 63° 76° (ENE) 23:43:33 437.250
QB50P1 19 Jan 23:44:57 23:49:03 50° 100° (E) 23:53:09 145.935-145.965
UNISAT 6 19 Jan 23:46:09 23:48:17 13° 292° (WNW) 23:50:24 437.425
POLYITAN 1 19 Jan 23:48:49 23:52:59 57° 101° (E) 23:57:09 437.675
QB50P2 19 Jan 23:50:01 23:54:13 65° 102° (ESE) 23:58:24 145.880/145.840
ESTCUBE 1 19 Jan 23:54:31 23:58:20 27° 263° (W) 00:02:11 437.505/2401.250
VELOX 1 20 Jan 00:08:15 00:12:36 54° 260° (W) 00:16:58 145.980
POPSAT HIP 1 20 Jan 00:11:43 00:15:55 75° 285° (WNW) 00:20:08 437.405
50 SAT 20 Jan 00:14:31 00:17:58 50° 260° (W) 00:21:27 437.505
YUBILEINY 20 Jan 00:15:31 00:20:59 18° 69° (ENE) 00:26:22 435.215
AO-85 20 Jan 00:18:47 00:22:09 28° 247° (WSW) 00:25:34 145.980
JAS-2 20 Jan 00:23:24 00:29:57 38° 290° (WNW) 00:36:56 435.910
DUCHIFAT 1 20 Jan 00:23:29 00:27:38 62° 284° (WNW) 00:31:46 145.980
NANOSAT C BR1 20 Jan 00:28:45 00:32:47 47° 286° (WNW) 00:36:50 145.865
AIST 1 20 Jan 00:28:59 00:31:08 14° 75° (ENE) 00:33:15
PCSat 20 Jan 00:34:49 00:40:08 64° 112° (ESE) 00:45:30 145.827
TISAT 1 20 Jan 00:37:49 00:41:22 27° 72° (ENE) 00:44:53 437.305
DX 1 20 Jan 00:42:51 00:47:02 45° 260° (W) 00:51:14 434.975-435.025
SPROUT 20 Jan 00:43:01 00:46:40 28° 263° (W) 00:50:20 437.525
UKube-1 20 Jan 00:43:13 00:47:29 64° 258° (WSW) 00:51:47 .
RS-15 20 Jan 00:45:47 00:57:16 56° 304° (NW) 01:09:20 29.354- 29.394
Cosmos 2491 20 Jan 00:59:02 01:04:52 20° 82° (E) 01:10:43 435.465 / 435.565
BUGSAT 1 20 Jan 01:00:56 01:04:56 65° 284° (WNW) 01:08:57 437.445
SWISSCUBE 20 Jan 01:02:04 01:03:34 11° 65° (ENE) 01:05:05 437.505
PHONESAT 2.4 20 Jan 01:03:02 01:05:02 25° 147° (SSE) 01:07:01 2401.200-2431.200
QB50P1 20 Jan 01:23:22 01:24:19 11° 293° (WNW) 01:25:17 145.935-145.965
Oscar 19 20 Jan 01:25:42 01:30:40 47° 100° (E) 01:35:36 437.125/150
Gurwin Techsat 1B 20 Jan 01:34:50 01:39:25 29° 97° (E) 01:44:00 435.225
Cosmos 2504 20 Jan 01:53:48 02:00:36 40° 78° (ENE) 02:07:11 435.465 / 435.565
BEESAT 3 20 Jan 01:56:14 02:00:15 74° 62° (ENE) 02:04:12 437.485
ITUPSAT 1 20 Jan 01:59:40 02:04:09 44° 73° (ENE) 02:08:41 437.325
AIST 1 20 Jan 02:04:57 02:08:49 35° 268° (W) 02:12:39
YUBILEINY 20 Jan 02:09:50 02:18:39 80° 267° (W) 02:27:22 435.215
AO-7 20 Jan 02:13:41 02:15:32 11° 91° (E) 02:17:22 29.400- 29.500
TISAT 1 20 Jan 02:14:02 02:16:56 18° 264° (W) 02:19:50 437.305
PCSat 20 Jan 02:20:48 02:23:58 16° 308° (NW) 02:27:09 145.827
BEESAT 20 Jan 02:34:28 02:39:11 72° 257° (WSW) 02:43:56 436.000
MOZHAYETS 4 20 Jan 02:36:04 02:39:59 29° 72° (ENE) 02:43:56
SWISSCUBE 20 Jan 02:36:06 02:40:46 61° 258° (WSW) 02:45:29 437.505
PHONESAT 2.4 20 Jan 02:37:04 02:39:05 26° 341° (NNW) 02:41:05 2401.200-2431.200
BEESAT 2 20 Jan 02:39:37 02:43:40 85° 244° (WSW) 02:47:41 435.950
M-CUBED/EXP-1 PRIME 20 Jan 02:45:32 02:49:04 24° 67° (ENE) 02:52:26 437.505
Cosmos 2491 20 Jan 02:52:10 03:00:48 68° 278° (W) 03:09:29 435.465 / 435.565
CUSAT 1 20 Jan 03:02:39 03:07:01 45° 91° (E) 03:12:45 437.405
RS-15 20 Jan 03:06:19 03:13:25 17° 332° (NNW) 03:20:38 29.354- 29.394
Oscar 19 20 Jan 03:06:20 03:09:33 17° 294° (WNW) 03:12:45 437.125/150
Gurwin Techsat 1B 20 Jan 03:14:47 03:19:13 28° 291° (WNW) 03:23:38 435.225
KKS-1 20 Jan 03:20:07 03:23:53 28° 71° (ENE) 03:27:39 437.445
AUBIESAT-1 20 Jan 03:21:57 03:26:11 50° 71° (ENE) 03:30:10 437.475
CUBESAT XI-V 20 Jan 03:22:12 03:24:21 13° 67° (ENE) 03:26:31 437.345
ITUPSAT 1 20 Jan 03:39:33 03:42:08 15° 266° (W) 03:44:45 437.325
ITAMSAT 1 20 Jan 03:46:15 03:51:26 72° 285° (WNW) 03:56:38 435.822/435.867
Cosmos 2504 20 Jan 03:47:39 03:53:37 28° 274° (W) 03:59:28 435.465 / 435.565
DANDE 20 Jan 03:49:06 03:51:58 24° 87° (E) 03:55:32 436.750
AO-7 20 Jan 04:00:51 04:09:15 78° 106° (ESE) 04:17:34 29.400- 29.500
YUBILEINY 20 Jan 04:11:49 04:13:54 11° 283° (WNW) 04:16:00 435.215
PHONESAT 2.4 20 Jan 04:12:42 04:13:38 12° 357° (N) 04:14:33 2401.200-2431.200
MOZHAYETS 4 20 Jan 04:13:44 04:17:07 20° 265° (W) 04:20:30
STARS 20 Jan 04:14:16 04:18:30 51° 74° (ENE) 04:22:45 437.465
M-CUBED/EXP-1 PRIME 20 Jan 04:19:38 04:23:21 25° 258° (WSW) 04:26:56 437.505
AIST 2 20 Jan 04:32:53 04:36:32 27° 56° (NE) 04:40:10 435.215
CUSAT 1 20 Jan 04:46:13 04:49:30 17° 294° (WNW) 04:53:20 437.405
CUBESAT XI-V 20 Jan 04:56:40 05:01:13 51° 260° (W) 05:05:49 437.345
KKS-1 20 Jan 04:57:03 05:00:22 20° 264° (W) 05:03:42 437.445
AUBIESAT-1 20 Jan 04:59:18 05:00:38 11° 261° (W) 05:01:56 437.475
ISS 20 Jan 05:05:13 05:07:53 23° 37° (NE) 05:10:33 145.825
BRITE-PL 20 Jan 05:07:49 05:12:34 61° 100° (E) 05:16:56 437.365/2234.400
GOMX 1 20 Jan 05:14:55 05:18:22 23° 95° (E) 05:21:43 467.674
LilacSat-2 20 Jan 05:27:47 05:29:11 12° 93° (E) 05:30:34 437.200
RS-15 20 Jan 05:30:32 05:34:03 11° 11° (NNE) 05:37:34 29.354- 29.394
DANDE 20 Jan 05:32:40 05:34:50 15° 294° (WNW) 05:37:18 436.750
Cubesat XI-IV 20 Jan 05:37:09 05:40:42 18° 95° (E) 05:44:13 437.490
PHONESAT 2.4 20 Jan 05:46:40 05:48:16 16° 13° (NNE) 05:49:52 2401.200-2431.200
NOAA 15 20 Jan 05:47:15 05:51:30 24° 96° (E) 05:55:43 137.62
STARS 20 Jan 05:54:15 05:55:04 10° 267° (W) 05:55:53 437.465
AO-7 20 Jan 05:55:28 06:01:04 20° 302° (WNW) 06:06:41 29.400- 29.500
DOVE 4 20 Jan 05:56:09 05:59:32 24° 96° (E) 06:02:54 437.250
HORYU 2 20 Jan 06:00:57 06:05:25 77° 284° (WNW) 06:09:52 437.375
Cosmos 2499 20 Jan 06:08:38 06:14:10 24° 74° (ENE) 06:19:38 435.465 / 435.565
AIST 2 20 Jan 06:11:36 06:14:49 21° 250° (WSW) 06:18:01 435.215
O/OREOS (USA 219) 20 Jan 06:15:39 06:20:05 65° 106° (ESE) 06:24:30 437.305
STRAND 1 20 Jan 06:31:06 06:35:50 41° 72° (ENE) 06:40:36 437.568
CUTE-I 20 Jan 06:32:33 06:37:53 69° 102° (ESE) 06:43:12 437.470
ISS 20 Jan 06:41:37 06:44:18 24° 231° (SW) 06:46:59 145.825
BRITE-PL 20 Jan 06:49:30 06:50:19 10° 296° (WNW) 06:51:07 437.365/2234.400
GOMX 1 20 Jan 06:53:01 06:56:20 21° 290° (WNW) 06:59:33 467.674
GONETS M04 20 Jan 06:56:50 07:05:22 50° 79° (E) 07:13:51
LilacSat-2 20 Jan 06:59:59 07:03:32 35° 286° (WNW) 07:07:05 437.200
SO-50 20 Jan 07:05:03 07:09:00 27° 111° (ESE) 07:12:57 436.795
Cubesat XI-IV 20 Jan 07:15:50 07:20:53 45° 288° (WNW) 07:25:57 437.490
NOAA 18 20 Jan 07:16:40 07:22:08 88° 284° (WNW) 07:27:35 137.9125
CUTE 1.7 + AOD 2 20 Jan 07:17:51 07:21:24 25° 96° (E) 07:24:54 437.475
PHONESAT 2.4 20 Jan 07:20:15 07:22:31 76° 209° (SSW) 07:24:48 2401.200-2431.200
NOAA 15 20 Jan 07:26:31 07:31:14 33° 290° (WNW) 07:35:56 137.62
CINEMA 3 20 Jan 07:26:58 07:31:08 63° 101° (E) 07:35:27 145.822/145.860
DOVE 4 20 Jan 07:34:05 07:37:04 19° 290° (WNW) 07:40:02 437.250
RS-15 20 Jan 07:41:48 07:52:30 33° 45° (NE) 08:02:48 29.354- 29.394
CANX-2 20 Jan 07:46:23 07:50:41 69° 100° (E) 07:54:56 2200.000
HO-68 20 Jan 07:52:01 07:59:08 64° 103° (ESE) 08:06:12 435.675
SEEDS 20 Jan 07:58:19 08:02:28 50° 100° (E) 08:06:34 437.485
Cosmos 2499 20 Jan 08:00:46 08:07:27 46° 270° (W) 08:14:06 435.465 / 435.565
COMPASS 1 20 Jan 08:04:34 08:08:28 37° 98° (E) 08:12:20 437.405
STRAND 1 20 Jan 08:11:45 08:15:08 18° 265° (W) 08:18:30 437.568
CUTE-I 20 Jan 08:15:08 08:17:16 12° 296° (WNW) 08:19:25 437.470
Oscar 11 20 Jan 08:15:32 08:17:33 13° 93° (E) 08:19:34 145.826/435.025
AAUSAT CUBESAT 2 20 Jan 08:16:11 08:20:06 38° 99° (E) 08:23:58 437.432
CUBEBUG 2 20 Jan 08:23:55 08:28:15 63° 101° (E) 08:32:43 437.445
PRISM 20 Jan 08:43:37 08:47:39 51° 75° (ENE) 08:51:42 437.425
SO-50 20 Jan 08:45:19 08:49:22 27° 305° (NW) 08:53:22 436.795
FUNcube-1 20 Jan 08:49:44 08:53:53 39° 99° (E) 08:58:05 145.935
UWE-3 20 Jan 08:52:59 08:57:23 86° 98° (E) 09:01:55 435.000/436.395/437.385
CUTE 1.7 + AOD 2 20 Jan 08:53:47 08:57:03 21° 289° (WNW) 09:00:17 437.475
GONETS M04 20 Jan 08:54:27 09:01:40 29° 275° (W) 09:08:54
UNISAT 6 20 Jan 09:02:49 09:06:07 22° 71° (ENE) 09:09:24 437.425
ZACube-1 20 Jan 09:12:26 09:16:51 84° 103° (ESE) 09:21:21 437.345
TIGRISAT 20 Jan 09:15:50 09:19:30 29° 72° (ENE) 09:23:10 435.000
HUMSAT D 20 Jan 09:27:24 09:29:59 15° 94° (E) 09:32:32 437.325/437.525
PCSat 20 Jan 09:28:11 09:32:10 20° 54° (NE) 09:36:09 145.827
ANTELSAT 20 Jan 09:30:31 09:34:36 47° 75° (ENE) 09:38:42 437.575/2403.000
DELFI C3 20 Jan 09:35:51 09:39:34 37° 98° (E) 09:43:13 145.870
SEEDS 20 Jan 09:36:38 09:37:38 11° 293° (WNW) 09:38:38 437.485
HO-68 20 Jan 09:41:10 09:46:12 21° 298° (WNW) 09:51:13 435.675
COMPASS 1 20 Jan 09:41:26 09:43:38 14° 292° (WNW) 09:45:49 437.405
Oscar 11 20 Jan 09:49:43 09:53:49 41° 286° (WNW) 09:57:54 145.826/435.025
AAUSAT CUBESAT 2 20 Jan 09:53:08 09:55:10 13° 292° (WNW) 09:57:12 437.432
RS-15 20 Jan 09:53:50 10:06:02 73° 247° (WSW) 10:17:38 29.354- 29.394
FUNcube-1 20 Jan 10:27:16 10:29:46 15° 291° (WNW) 10:32:17 145.935
JAS-2 20 Jan 10:31:09 10:36:18 64° 74° (ENE) 10:41:54 435.910
QB50P1 20 Jan 10:33:31 10:36:38 21° 70° (ENE) 10:39:46 145.935-145.965
POLYITAN 1 20 Jan 10:37:24 10:40:42 23° 71° (ENE) 10:44:01 437.675
QB50P2 20 Jan 10:38:27 10:41:55 26° 71° (ENE) 10:45:24 145.880/145.840
UNISAT 6 20 Jan 10:39:17 10:42:41 23° 264° (W) 10:46:06 437.425
TIGRISAT 20 Jan 10:53:20 10:56:10 17° 265° (W) 10:59:01 435.000
POPSAT HIP 1 20 Jan 10:59:29 11:03:26 42° 74° (ENE) 11:07:22 437.405
HUMSAT D 20 Jan 11:01:44 11:05:37 34° 287° (WNW) 11:09:30 437.325/437.525
BY70-1 20 Jan 11:03:28 11:06:38 49° 99° (E) 11:09:34 436.1900
DUCHIFAT 1 20 Jan 11:10:26 11:14:27 49° 75° (ENE) 11:18:29 145.980
PCSat 20 Jan 11:10:35 11:15:46 46° 250° (WSW) 11:20:54 145.827
ANTELSAT 20 Jan 11:10:48 11:11:31 10° 267° (W) 11:12:13 437.575/2403.000
DELFI C3 20 Jan 11:12:16 11:13:58 13° 292° (WNW) 11:15:41 145.870
CUBEBUG 1 20 Jan 11:14:36 11:17:28 17° 95° (E) 11:20:19 437.445
NANOSAT C BR1 20 Jan 11:15:45 11:19:53 65° 76° (ENE) 11:24:02 145.865
